TimeMST,TemperatureF,Dew PointF,Humidity,Sea Level PressureIn,VisibilityMPH,Wind Direction,Wind SpeedMPH,Gust SpeedMPH,PrecipitationIn,Events,Conditions,WindDirDegrees,DateUTC
12:56 AM,-4.0,-9.0,79,30.12,-9999.0,Calm,Calm,-,N/A,,Unknown,0,2013-02-24 07:56:00
1:56 AM,-7.1,-11.0,83,30.17,-9999.0,Calm,Calm,-,N/A,,Unknown,0,2013-02-24 08:56:00
2:56 AM,-8.0,-13.0,79,30.20,-9999.0,Calm,Calm,-,N/A,,Unknown,0,2013-02-24 09:56:00
3:56 AM,-9.0,-14.1,79,30.22,-9999.0,Calm,Calm,-,N/A,,Unknown,0,2013-02-24 10:56:00
4:56 AM,-9.9,-15.0,78,30.27,-9999.0,Calm,Calm,-,N/A,,Unknown,0,2013-02-24 11:56:00
5:56 AM,-11.0,-16.1,78,30.30,-9999.0,Calm,Calm,-,N/A,,Unknown,0,2013-02-24 12:56:00
6:56 AM,-11.0,-17.0,75,30.35,-9999.0,Calm,Calm,-,N/A,,Unknown,0,2013-02-24 13:56:00
7:56 AM,-8.0,-11.9,83,30.35,-9999.0,Calm,Calm,-,N/A,,Unknown,0,2013-02-24 14:56:00
8:56 AM,-0.9,-2.0,95,30.32,-9999.0,Calm,Calm,-,N/A,,Unknown,0,2013-02-24 15:56:00
9:56 AM,-0.0,-4.0,83,30.36,-9999.0,Calm,Calm,-,N/A,,Unknown,0,2013-02-24 16:56:00
10:56 AM,5.0,-2.9,70,30.37,-9999.0,Calm,Calm,-,N/A,,Unknown,0,2013-02-24 17:56:00
11:56 AM,10.9,1.9,67,30.35,-9999.0,Calm,Calm,-,N/A,,Unknown,0,2013-02-24 18:56:00
12:56 PM,14.0,3.9,64,30.33,-9999.0,Calm,Calm,-,N/A,,Unknown,0,2013-02-24 19:56:00
1:56 PM,17.1,6.1,62,30.32,-9999.0,Calm,Calm,-,N/A,,Unknown,0,2013-02-24 20:56:00
2:56 PM,19.0,7.0,59,30.30,-9999.0,Calm,Calm,-,N/A,,Unknown,0,2013-02-24 21:56:00
3:56 PM,21.0,6.1,53,30.30,-9999.0,Calm,Calm,-,N/A,,Unknown,0,2013-02-24 22:56:00
4:56 PM,19.9,-0.0,42,30.33,-9999.0,Variable,5.8,-,N/A,,Unknown,0,2013-02-24 23:56:00
5:56 PM,17.1,3.9,56,30.37,-9999.0,Calm,Calm,-,N/A,,Unknown,0,2013-02-25 00:56:00
6:56 PM,12.0,6.1,77,30.41,-9999.0,Calm,Calm,-,N/A,,Unknown,0,2013-02-25 01:56:00
7:56 PM,3.9,-0.0,84,30.48,-9999.0,Calm,Calm,-,N/A,,Unknown,0,2013-02-25 02:56:00
8:56 PM,-0.0,-4.0,83,30.47,-9999.0,Calm,Calm,-,N/A,,Unknown,0,2013-02-25 03:56:00
9:56 PM,-2.9,-7.1,82,30.49,-9999.0,Calm,Calm,-,N/A,,Unknown,0,2013-02-25 04:56:00
10:56 PM,-4.0,-9.0,79,30.45,-9999.0,NW,3.5,-,N/A,,Unknown,310,2013-02-25 05:56:00
11:56 PM,-6.0,-9.9,83,30.43,-9999.0,Calm,Calm,-,N/A,,Unknown,0,2013-02-25 06:56:00